KC9Q Weather Reports


Display with metric or nautical units.
time (UTC)temp
F
wind
direction
speed
MPH
gust
MPH
rain 1hr
in
rain 24hr
in
rain mn
in
humidity
%
barometer
mb
20260510201745 75 357 13.0 17.0 0.00 0.00 0.00 39 1016.7
20260510201242 75 0 9.0 17.0 0.00 0.00 0.00 39 1016.5
20260510200738 74 356 11.0 17.0 0.00 0.00 0.00 39 1016.6
20260510200236 75 1 13.0 17.0 0.00 0.00 0.00 39 1016.6
20260510195733 74 5 17.0 17.0 0.00 0.00 0.00 40 1016.6
20260510195230 75 1 10.0 15.0 0.00 0.00 0.00 41 1016.8
20260510194729 75 5 15.0 17.0 0.00 0.00 0.00 41 1016.7
20260510194226 75 10 13.0 17.0 0.00 0.00 0.00 41 1016.6
20260510193721 75 351 8.0 16.0 0.00 0.00 0.00 42 1016.7
20260510193216 76 0 11.0 14.0 0.00 0.00 0.00 44 1016.6
20260510192712 75 0 14.0 17.0 0.00 0.00 0.00 44 1016.8
20260510192208 74 18 6.0 9.0 0.00 0.00 0.00 46 1016.7
20260510191704 74 21 5.0 13.0 0.00 0.00 0.00 46 1016.8
20260510191200 74 3 12.0 16.0 0.00 0.00 0.00 46 1016.8
20260510190658 75 8 12.0 14.0 0.00 0.00 0.00 46 1016.7
20260510190155 74 4 12.0 16.0 0.00 0.00 0.00 48 1016.6
20260510185652 74 10 17.0 19.0 0.00 0.00 0.00 47 1016.6
20260510185150 74 343 7.0 16.0 0.00 0.00 0.00 47 1016.5
20260510184646 74 348 13.0 17.0 0.00 0.00 0.00 49 1016.7
20260510184142 73 0 12.0 15.0 0.00 0.00 0.00 48 1016.5
20260510183637 73 356 13.0 15.0 0.00 0.00 0.00 48 1016.7
20260510183133 74 4 19.0 19.0 0.00 0.00 0.00 46 1016.5
20260510182630 73 348 11.0 16.0 0.00 0.00 0.00 48 1016.5
20260510182125 74 0 13.0 17.0 0.00 0.00 0.00 48 1016.5
20260510181623 75 0 16.0 18.0 0.00 0.00 0.00 47 1016.4
20260510181119 74 356 7.0 14.0 0.00 0.00 0.00 46 1016.5
20260510180615 74 1 15.0 19.0 0.00 0.00 0.00 46 1016.5
20260510180113 73 356 10.0 17.0 0.00 0.00 0.00 49 1016.5
20260510175609 73 350 12.0 15.0 0.00 0.00 0.00 50 1016.4
20260510175104 73 10 12.0 17.0 0.00 0.00 0.00 51 1016.4
20260510174603 73 356 10.0 13.0 0.00 0.00 0.00 51 1016.5
20260510174059 73 19 7.0 16.0 0.00 0.00 0.00 51 1016.4
20260510173555 73 353 15.0 15.0 0.00 0.00 0.00 50 1016.3
20260510173052 73 0 20.0 20.0 0.00 0.00 0.00 51 1016.3
20260510172548 73 3 12.0 16.0 0.00 0.00 0.00 51 1016.5
20260510172044 73 358 12.0 14.0 0.00 0.00 0.00 55 1016.6
20260510171541 73 1 17.0 17.0 0.00 0.00 0.00 53 1016.7
20260510171038 73 3 12.0 16.0 0.00 0.00 0.00 52 1016.5
20260510170534 73 355 12.0 14.0 0.00 0.00 0.00 53 1016.6
20260510170031 73 3 13.0 15.0 0.00 0.00 0.00 53 1016.7
20260510165527 73 9 9.0 15.0 0.00 0.00 0.00 54 1016.7
20260510165023 74 15 9.0 13.0 0.00 0.00 0.00 54 1016.6
20260510164521 73 5 13.0 13.0 0.00 0.00 0.00 55 1016.6
20260510164017 73 8 11.0 16.0 0.00 0.00 0.00 55 1016.6
20260510163512 73 358 13.0 15.0 0.00 0.00 0.00 56 1016.7
20260510163008 73 2 12.0 15.0 0.00 0.00 0.00 57 1016.6
20260510162504 73 10 10.0 16.0 0.00 0.00 0.00 60 1016.6
20260510162000 74 13 9.0 15.0 0.00 0.00 0.00 60 1016.6
20260510161456 73 5 7.0 11.0 0.00 0.00 0.00 61 1016.7
20260510160954 72 9 8.0 11.0 0.00 0.00 0.00 62 1016.5
20260510160451 72 5 12.0 14.0 0.00 0.00 0.00 61 1016.6
20260510155948 72 357 11.0 14.0 0.00 0.00 0.00 61 1016.8
20260510155447 72 353 9.0 15.0 0.00 0.00 0.00 61 1016.7
20260510154943 72 354 8.0 11.0 0.00 0.00 0.00 61 1016.4
20260510154439 72 4 9.0 12.0 0.00 0.00 0.00 63 1016.3
20260510153937 71 23 6.0 12.0 0.00 0.00 0.00 62 1016.3
20260510153435 71 358 13.0 13.0 0.00 0.00 0.00 61 1016.0
20260510152931 71 355 11.0 14.0 0.00 0.00 0.00 60 1015.9
20260510152429 71 11 13.0 16.0 0.00 0.00 0.00 62 1016.0
20260510151925 71 12 10.0 12.0 0.00 0.00 0.00 63 1016.0
20260510151422 71 11 10.0 11.0 0.00 0.00 0.00 65 1015.8
20260510150918 70 3 13.0 15.0 0.00 0.00 0.00 64 1015.8
20260510150414 71 0 11.0 14.0 0.00 0.00 0.00 63 1015.9
20260510145910 71 13 11.0 15.0 0.00 0.00 0.00 63 1015.7
20260510145407 71 2 9.0 12.0 0.00 0.00 0.00 64 1015.9
20260510144904 70 25 7.0 12.0 0.00 0.00 0.00 64 1015.7
20260510144401 70 0 13.0 15.0 0.00 0.00 0.00 63 1015.5
20260510143901 70 0 10.0 15.0 0.00 0.00 0.00 65 1015.5
20260510143357 69 7 13.0 15.0 0.00 0.00 0.00 64 1015.5
20260510142854 70 11 10.0 14.0 0.00 0.00 0.00 62 1015.6
20260510142350 69 4 12.0 13.0 0.00 0.00 0.00 63 1015.6
20260510141847 69 12 8.0 11.0 0.00 0.00 0.00 60 1015.7
20260510141345 69 3 8.0 9.0 0.00 0.00 0.00 61 1015.5
20260510140842 68 1 8.0 9.0 0.00 0.00 0.00 60 1015.6
20260510140338 68 10 8.0 11.0 0.00 0.00 0.00 59 1015.5
20260510135837 68 357 5.0 7.0 0.00 0.00 0.00 61 1015.7
20260510135333 68 358 4.0 5.0 0.00 0.00 0.00 62 1015.5
20260510134831 67 358 3.0 5.0 0.00 0.00 0.00 62 1015.7
20260510134327 67 341 6.0 9.0 0.00 0.00 0.00 63 1015.6
20260510133824 66 342 6.0 8.0 0.00 0.00 0.00 63 1015.6
20260510133320 66 352 5.0 6.0 0.00 0.00 0.00 67 1015.4
20260510132815 66 345 4.0 10.0 0.00 0.00 0.00 68 1015.2
20260510132314 66 340 6.0 9.0 0.00 0.00 0.00 67 1015.3
20260510131810 66 349 6.0 10.0 0.00 0.00 0.00 70 1015.4
20260510131308 67 353 4.0 8.0 0.00 0.00 0.00 66 1015.3
20260510130804 66 278 0.0 2.0 0.00 0.00 0.00 68 1014.6
20260510130301 66 224 2.0 3.0 0.00 0.00 0.00 71 1014.7
20260510125758 65 162 1.0 3.0 0.00 0.00 0.00 71 1014.6
20260510125254 64 158 2.0 3.0 0.00 0.00 0.00 71 1014.7
20260510124750 64 174 0.0 2.0 0.00 0.00 0.00 72 1014.6
20260510124248 64 159 0.0 2.0 0.00 0.00 0.00 72 1014.4
20260510123743 63 129 0.0 1.0 0.00 0.00 0.00 74 1014.7
20260510123239 63 167 2.0 2.0 0.00 0.00 0.00 73 1014.5
20260510122736 62 155 2.0 2.0 0.00 0.00 0.00 74 1014.6
20260510122232 62 168 1.0 2.0 0.00 0.00 0.00 73 1014.7
20260510121728 62 199 2.0 2.0 0.00 0.00 0.00 73 1014.6
20260510121226 62 164 2.0 4.0 0.00 0.00 0.00 74 1014.5
20260510120723 61 128 3.0 4.0 0.00 0.00 0.00 75 1014.2
20260510120220 61 179 1.0 4.0 0.00 0.00 0.00 78 1014.1
20260510115715 60 156 3.0 3.0 0.00 0.00 0.00 80 1014.0
20260510115214 60 167 2.0 4.0 0.00 0.00 0.00 79 1014.0
20260510114709 60 114 0.0 3.0 0.00 0.00 0.00 80 1014.0
20260510114206 60 148 2.0 4.0 0.00 0.00 0.00 78 1013.8
20260510113701 60 76 0.0 2.0 0.00 0.00 0.00 79 1013.4
20260510113158 60 111 1.0 2.0 0.00 0.00 0.00 77 1013.7
20260510112655 60 137 1.0 2.0 0.00 0.00 0.00 76 1013.6
20260510112152 60 103 1.0 2.0 0.00 0.00 0.00 75 1013.6
20260510111648 60 122 0.0 3.0 0.00 0.00 0.00 75 1013.5
20260510111145 60 129 0.0 3.0 0.00 0.00 0.00 75 1013.5
20260510110639 60 132 1.0 2.0 0.00 0.00 0.00 74 1013.3
20260510110137 60 125 2.0 2.0 0.00 0.00 0.00 75 1013.2
20260510105633 60 131 1.0 2.0 0.00 0.00 0.00 74 1013.2
20260510105132 60 134 0.0 1.0 0.00 0.00 0.00 74 1013.2
20260510104630 60 144 2.0 2.0 0.00 0.00 0.00 75 1013.1
20260510104126 60 137 2.0 2.0 0.00 0.00 0.00 76 1013.1
20260510103623 59 155 1.0 2.0 0.00 0.00 0.00 77 1012.7
20260510103119 60 116 1.0 2.0 0.00 0.00 0.00 79 1012.9
20260510102614 60 89 0.0 1.0 0.00 0.00 0.00 79 1013.0
20260510102110 60 148 3.0 4.0 0.00 0.00 0.00 78 1012.9
20260510101608 60 120 1.0 3.0 0.00 0.00 0.00 77 1012.7
20260510101107 61 137 2.0 3.0 0.00 0.00 0.00 77 1012.7
20260510100602 61 132 2.0 2.0 0.00 0.00 0.00 76 1012.8
20260510100100 61 109 0.0 1.0 0.00 0.00 0.00 70 1012.8
20260510095556 61 60 2.0 2.0 0.00 0.00 0.00 69 1012.8
20260510095050 61 51 1.0 2.0 0.00 0.00 0.00 70 1013.1
20260510094550 61 56 2.0 2.0 0.00 0.00 0.00 71 1013.0
20260510094045 61 50 1.0 2.0 0.00 0.00 0.00 73 1012.9
20260510093541 62 20 2.0 3.0 0.00 0.00 0.00 72 1013.0
20260510093039 62 35 2.0 2.0 0.00 0.00 0.00 70 1012.8
20260510092536 62 12 2.0 2.0 0.00 0.00 0.00 71 1013.0
20260510092035 62 28 2.0 2.0 0.00 0.00 0.00 66 1012.9
20260510091532 62 55 0.0 1.0 0.00 0.00 0.00 65 1012.8
20260510091028 63 129 0.0 2.0 0.00 0.00 0.00 65 1012.8
20260510090525 63 128 1.0 2.0 0.00 0.00 0.00 66 1012.6
20260510090021 63 129 0.0 2.0 0.00 0.00 0.00 65 1012.6
20260510085521 62 102 1.0 1.0 0.00 0.00 0.00 65 1012.7
20260510085017 62 139 1.0 2.0 0.00 0.00 0.00 65 1012.7
20260510084514 62 129 0.0 1.0 0.00 0.00 0.00 65 1012.5
20260510084011 63 87 1.0 2.0 0.00 0.00 0.00 65 1012.6
20260510083507 63 7 6.0 6.0 0.00 0.00 0.00 64 1012.7
20260510083003 63 46 3.0 3.0 0.00 0.00 0.00 65 1012.5
20260510082501 63 355 1.0 4.0 0.00 0.00 0.00 64 1012.8
20260510082000 64 347 4.0 5.0 0.00 0.00 0.00 63 1012.6
20260510081456 64 340 0.0 4.0 0.00 0.00 0.00 62 1012.3
20260510080952 62 348 6.0 6.0 0.00 0.00 0.00 66 1012.5
20260510080451 63 9 2.0 2.0 0.00 0.00 0.00 63 1011.9
20260510075948 64 15 1.0 1.0 0.00 0.00 0.00 59 1011.5
20260510075446 64 48 1.0 1.0 0.00 0.00 0.00 60 1011.7
20260510074942 65 139 2.0 2.0 0.00 0.00 0.00 58 1011.7
20260510074440 65 215 1.0 2.0 0.00 0.00 0.00 57 1011.5
20260510073936 65 154 2.0 3.0 0.00 0.00 0.00 57 1011.4
20260510073431 66 149 3.0 3.0 0.00 0.00 0.00 56 1011.3
20260510072928 66 166 3.0 4.0 0.00 0.00 0.00 55 1011.5
20260510072425 66 190 2.0 2.0 0.00 0.00 0.00 55 1011.6
20260510071920 66 193 2.0 3.0 0.00 0.00 0.00 56 1011.5
20260510071417 66 199 1.0 2.0 0.00 0.00 0.00 56 1011.6
20260510070915 66 165 2.0 3.0 0.00 0.00 0.00 55 1011.4
20260510070412 66 163 2.0 3.0 0.00 0.00 0.00 54 1011.4
20260510065907 67 166 2.0 4.0 0.00 0.00 0.00 53 1011.6
20260510065404 67 167 3.0 3.0 0.00 0.00 0.00 52 1011.6
20260510064901 67 195 2.0 3.0 0.00 0.00 0.00 53 1011.6
20260510064359 67 207 2.0 4.0 0.00 0.00 0.00 53 1011.9
20260510063854 67 231 4.0 6.0 0.00 0.00 0.00 53 1011.8
20260510063351 67 191 2.0 5.0 0.00 0.00 0.00 53 1011.7
20260510062848 67 224 3.0 5.0 0.00 0.00 0.00 52 1011.7
20260510062343 67 208 2.0 2.0 0.00 0.00 0.00 53 1011.5
20260510061839 67 188 2.0 3.0 0.00 0.00 0.00 53 1011.3
20260510061336 67 200 2.0 3.0 0.00 0.00 0.00 53 1011.5
20260510060832 67 187 2.0 3.0 0.00 0.00 0.00 53 1011.6
20260510060330 67 186 2.0 3.0 0.00 0.00 0.00 52 1011.5
20260510055826 67 171 3.0 3.0 0.00 0.00 0.00 53 1011.4
20260510055325 68 171 2.0 3.0 0.00 0.00 0.00 52 1011.2
20260510054825 68 171 3.0 3.0 0.00 0.00 0.00 52 1011.5
20260510054320 68 188 2.0 2.0 0.00 0.00 0.00 53 1011.3
20260510053816 68 186 2.0 2.0 0.00 0.00 0.00 53 1011.5
20260510053311 68 184 2.0 3.0 0.00 0.00 0.00 53 1011.4
20260510052808 67 169 2.0 3.0 0.00 0.00 0.00 54 1011.4
20260510052306 67 167 2.0 3.0 0.00 0.00 0.00 54 1011.5
20260510051800 68 161 1.0 3.0 0.00 0.00 0.00 55 1011.2
20260510051257 68 167 3.0 3.0 0.00 0.00 0.00 54 1011.3
20260510050753 68 175 3.0 3.0 0.00 0.00 0.00 51 1011.3
20260510050251 69 163 4.0 4.0 0.00 0.00 0.00 51 1011.3
20260510045748 69 158 3.0 4.0 0.00 0.12 0.12 50 1011.1
20260510045244 69 172 3.0 4.0 0.00 0.12 0.12 51 1011.0
20260510044741 69 180 2.0 3.0 0.00 0.12 0.12 50 1011.1
20260510044239 69 178 2.0 4.0 0.00 0.12 0.12 50 1011.0
20260510043734 69 182 2.0 5.0 0.00 0.12 0.12 50 1011.2
20260510043231 69 184 2.0 3.0 0.00 0.12 0.12 50 1011.2
20260510042728 69 186 2.0 3.0 0.00 0.12 0.12 51 1011.1
20260510042223 69 180 3.0 4.0 0.00 0.12 0.12 52 1011.1
20260510041721 69 176 3.0 4.0 0.00 0.12 0.12 51 1011.2
20260510041218 69 172 4.0 4.0 0.00 0.12 0.12 52 1011.1
20260510040715 69 172 3.0 4.0 0.00 0.12 0.12 52 1011.0
20260510040212 69 166 3.0 4.0 0.00 0.12 0.12 52 1011.0
20260510035707 69 168 4.0 4.0 0.00 0.12 0.12 53 1011.0
20260510035203 69 177 2.0 3.0 0.00 0.12 0.12 53 1011.0
20260510034659 69 169 3.0 4.0 0.00 0.12 0.12 53 1011.0
20260510034157 69 184 3.0 4.0 0.00 0.12 0.12 53 1010.8
20260510033653 68 157 3.0 3.0 0.00 0.12 0.12 54 1010.8
20260510033151 68 154 3.0 3.0 0.00 0.12 0.12 54 1011.0
20260510032647 69 148 2.0 4.0 0.00 0.12 0.12 54 1010.8
20260510032142 70 178 2.0 4.0 0.00 0.12 0.12 52 1010.8
20260510031638 70 166 2.0 5.0 0.00 0.12 0.12 50 1010.9
20260510031135 70 188 3.0 4.0 0.00 0.12 0.12 49 1010.9
20260510030634 70 169 2.0 5.0 0.00 0.12 0.12 49 1010.9
20260510030133 70 186 4.0 4.0 0.00 0.12 0.12 49 1010.8
20260510025630 71 166 4.0 4.0 0.00 0.12 0.12 48 1010.7
20260510025127 71 177 4.0 4.0 0.00 0.12 0.12 48 1010.7
20260510024623 71 161 2.0 4.0 0.00 0.12 0.12 48 1010.6
20260510024120 71 193 3.0 4.0 0.00 0.12 0.12 48 1010.6
20260510023616 71 172 2.0 4.0 0.00 0.12 0.12 48 1010.6
20260510023114 71 162 3.0 5.0 0.00 0.12 0.12 48 1010.5
20260510022613 71 168 2.0 4.0 0.00 0.12 0.12 48 1010.6
20260510022108 71 162 3.0 4.0 0.00 0.12 0.12 47 1010.6
20260510021604 71 184 2.0 5.0 0.00 0.12 0.12 47 1010.4
20260510021103 72 181 2.0 5.0 0.00 0.12 0.12 48 1010.5
20260510020601 71 185 4.0 4.0 0.00 0.12 0.12 47 1010.5
20260510020057 71 192 2.0 4.0 0.00 0.12 0.12 49 1010.2
20260510015554 71 180 2.0 4.0 0.00 0.12 0.12 49 1010.1
20260510015050 71 143 2.0 3.0 0.00 0.12 0.12 50 1010.1
20260510014546 71 137 1.0 3.0 0.00 0.12 0.12 51 1010.2
20260510014044 72 190 0.0 3.0 0.00 0.12 0.12 50 1010.2
20260510013544 72 153 1.0 3.0 0.00 0.12 0.12 49 1010.0
20260510013040 73 172 2.0 3.0 0.00 0.12 0.12 47 1009.9
20260510012534 73 150 2.0 3.0 0.00 0.12 0.12 45 1009.8
20260510012031 73 149 3.0 4.0 0.00 0.12 0.12 45 1009.8
20260510011530 74 169 2.0 3.0 0.00 0.12 0.12 45 1009.8
20260510011026 74 156 2.0 4.0 0.00 0.12 0.12 45 1009.6
20260510010523 74 178 3.0 4.0 0.00 0.12 0.12 44 1009.5
20260510010020 75 175 3.0 4.0 0.00 0.12 0.12 43 1009.5
20260510005515 75 174 3.0 4.0 0.00 0.12 0.12 43 1009.3
20260510005014 75 166 3.0 4.0 0.00 0.12 0.12 43 1009.4
20260510004511 76 175 2.0 4.0 0.00 0.12 0.12 43 1009.3
20260510004009 76 221 2.0 4.0 0.00 0.12 0.12 42 1009.3
20260510003505 77 172 2.0 3.0 0.00 0.12 0.12 42 1009.1
20260510003000 77 156 2.0 4.0 0.00 0.12 0.12 40 1009.0
20260510002456 77 175 3.0 4.0 0.00 0.12 0.12 38 1009.2
20260510001953 78 177 3.0 5.0 0.00 0.12 0.12 39 1008.9
20260510001451 78 180 2.0 4.0 0.00 0.12 0.12 38 1009.0
20260510000948 78 198 4.0 4.0 0.00 0.12 0.12 38 1009.0
20260510000444 78 199 3.0 4.0 0.00 0.12 0.12 37 1009.0
20260509235941 79 192 3.0 5.0 0.00 0.12 0.12 37 1008.9
20260509235437 79 184 4.0 5.0 0.00 0.12 0.12 35 1008.8
20260509234934 80 210 3.0 4.0 0.00 0.12 0.12 33 1008.8
20260509234431 80 202 2.0 4.0 0.00 0.12 0.12 34 1008.6
20260509233929 80 238 3.0 5.0 0.00 0.12 0.12 32 1008.6
20260509233426 80 204 3.0 5.0 0.00 0.12 0.12 32 1008.9
20260509232922 80 207 2.0 4.0 0.00 0.12 0.12 34 1009.0
20260509232420 81 198 3.0 4.0 0.00 0.12 0.12 32 1008.7
20260509231915 81 228 4.0 6.0 0.00 0.12 0.12 33 1008.7
20260509231412 81 226 5.0 9.0 0.00 0.12 0.12 30 1008.8
20260509230910 81 231 6.0 6.0 0.00 0.12 0.12 29 1008.9
20260509230407 81 210 4.0 5.0 0.00 0.12 0.12 33 1008.9
20260509225902 81 231 6.0 9.0 0.00 0.12 0.12 30 1008.9
20260509225359 81 234 7.0 8.0 0.00 0.12 0.12 32 1008.9
20260509224855 81 224 4.0 9.0 0.00 0.12 0.12 29 1008.9
20260509224351 81 221 4.0 8.0 0.00 0.12 0.12 32 1008.9
20260509223849 81 237 8.0 11.0 0.00 0.12 0.12 29 1008.7
20260509223345 81 233 6.0 9.0 0.00 0.12 0.12 29 1009.0
20260509222843 81 227 7.0 11.0 0.00 0.12 0.12 30 1008.8
20260509222343 81 237 7.0 10.0 0.00 0.12 0.12 30 1008.8
20260509221838 81 229 7.0 9.0 0.00 0.12 0.12 33 1008.9
20260509221336 81 229 5.0 8.0 0.00 0.12 0.12 32 1008.9
20260509220837 81 230 6.0 8.0 0.00 0.12 0.12 32 1008.7
20260509220333 81 181 3.0 4.0 0.00 0.12 0.12 32 1008.8
20260509215828 81 240 4.0 8.0 0.00 0.12 0.12 32 1008.8
20260509215326 81 209 2.0 3.0 0.00 0.12 0.12 34 1008.6
20260509214823 81 248 0.0 4.0 0.00 0.12 0.12 31 1008.7
20260509214319 82 182 2.0 4.0 0.00 0.12 0.12 32 1008.6
20260509213817 82 251 3.0 4.0 0.00 0.12 0.12 31 1008.9
20260509213312 82 232 5.0 5.0 0.00 0.12 0.12 30 1008.8
20260509212810 81 236 10.0 12.0 0.00 0.12 0.12 32 1008.7
20260509212307 82 204 5.0 7.0 0.00 0.12 0.12 33 1008.9
20260509211802 82 234 5.0 9.0 0.00 0.12 0.12 33 1008.9
20260509211259 82 305 2.0 5.0 0.00 0.12 0.12 34 1008.8
20260509210756 82 216 6.0 8.0 0.00 0.12 0.12 37 1008.6
20260509210254 81 206 2.0 6.0 0.00 0.12 0.12 33 1008.7
20260509205753 81 242 3.0 6.0 0.00 0.12 0.12 33 1008.7
20260509205248 82 218 3.0 5.0 0.00 0.12 0.12 36 1008.9
20260509204744 82 159 2.0 6.0 0.00 0.12 0.12 35 1008.8
20260509204240 82 187 4.0 6.0 0.00 0.12 0.12 34 1008.9
20260509203737 81 209 2.0 6.0 0.00 0.12 0.12 31 1009.0
20260509203235 81 244 3.0 6.0 0.00 0.12 0.12 34 1009.1
20260509202730 81 208 5.0 8.0 0.00 0.12 0.12 32 1009.1
20260509202226 81 181 3.0 5.0 0.00 0.12 0.12 36 1009.4